Find Starlink 4120

NORAD ID: 53537 Int'l Des: 2022-101 Owner: SPXS Country: US Constellation: starlink operational
LEOCIRCULAR

Live-Position

3D-Globus wird geladen...

Über Starlink 4120

Beschreibung wird geladen...

Nächste Überflüge

Passes for default location (London). Set your location on the main map for personalized predictions.

Höhenverlauf

Loading altitude history...

Zweizeiliger Elementsatz

1 53537U 22101L 26123.50951910 .00000225 00000-0 32253-4 0 9991
2 53537 53.2165 187.9933 0001256 82.3498 277.7637 15.08838772204447
Epoch: 3. Mai 2026 • Age: 9 hours

Aktueller Status

Höhe 554.4 km
Geschwindigkeit 7.58 km/s
Subsatellitenpunkt -41.68°S, 132.29°W
Startdatum 19. Aug. 2022
Alter 3.7 years
Typ internet

Technische Details

Klassifizierung Payload
Masse 300.00 kg
Trockenmasse 290.00 kg
Gesamtmasse 300.00 kg
Länge 0.20 m
Durchmesser 2.80 m
Spannweite 9.00 m
Form Box + pan
Hersteller SPXS
Bus-Typ Starlink
Phasenstatus In Orbit
Besitzer/Staat SPXS/US

Most Searched